[[{"header":{"parameterUnit":"m.s-1","parameterCategory":1,"la1":30.2991,"la2":30.254,"lo1":-89.0895,"lo2":-89.0444,"dy":0.0017,"dx":0.0017,"nx":28,"ny":28,"refTime":"2024-04-28T09:00:00:Z","depth":0,"parameterNumber":2,"parameterNumberName":"U-component_of_WINDS"},"data":[0,0,0,0,0,0,0,0,0,0,0,0,0,0,0,0,0,0,0,0,0,0,0,0,0,0,0,0,0,0,0,0,0,0,0,0,0,0,0,0,0,0,0,0,0,0,0,0,0,0,0,0,0,0,0,0,0,0,-8.2032,-8.2034,0,-8.2216,-8.2218,-8.222,-8.2235,-8.2233,-8.2231,-8.223,-8.2413,-8.242,-8.2426,0,0,0,0,0,0,0,0,0,0,0,0,0,-8.1692,-8.1698,-8.2031,-8.2034,-8.2036,-8.2215,-8.2218,-8.222,-8.2236,-8.2233,-8.2231,-8.2229,-8.2411,-8.2419,-8.2427,0,0,0,0,0,0,0,0,0,0,0,0,0,-8.1854,-8.17,-8.2031,-8.2066,-8.207,-8.2215,-8.2218,-8.2221,-8.2236,-8.2233,-8.223,-8.2228,-8.2408,-8.2418,-8.2428,-8.2549,0,0,-8.2459,-8.2463,0,0,0,0,0,0,0,0,-8.1844,-8.1866,-8.2058,-8.2063,-8.2069,-8.22,-8.2165,-8.2331,-8.2237,-8.2173,-8.223,-8.2226,-8.2344,-8.2359,-8.24,-8.2558,-8.2566,-8.246,-8.2466,-8.247,-8.2473,0,0,0,0,0,0,0,-8.1833,-8.1858,-8.2104,-8.2061,-8.2068,-8.2071,-8.2091,-8.2197,-8.2273,-8.2178,-8.218,-8.2202,-8.2347,-8.239,-8.2405,-8.2568,-8.246,-8.2469,-8.2475,-8.2479,-8.2836,-8.2839,0,0,0,0,0,0,-8.1816,-8.1849,-8.2098,-8.211,-8.1947,-8.208,-8.2102,-8.2161,-8.2272,-8.2286,-8.2204,-8.2202,-8.2375,-8.2393,-8.2411,-8.256,-8.247,-8.248,-8.2485,-8.2833,-8.2837,-8.284,0,0,0,0,0,0,-8.1809,-8.1838,-8.2091,-8.198,-8.2012,-8.2089,-8.2155,-8.2166,-8.2209,-8.2291,-8.2304,-8.2235,-8.2373,-8.2397,-8.2515,-8.2566,-8.2484,-8.2493,-8.2828,-8.2834,-8.2839,-8.2858,0,0,0,0,0,0,-8.1799,-8.1835,-8.1882,-8.1981,-8.2018,-8.2192,-8.2158,-8.2171,-8.2227,-8.2226,-8.2324,-8.2337,-8.2373,-8.25,-8.2525,-8.2579,-8.2501,-8.2824,-8.2831,-8.2837,-8.2853,-8.2863,-8.2871,0,0,0,0,0,-8.1787,-8.1879,-8.1884,-8.1914,-8.2078,-8.2195,-8.2216,-8.2257,-8.2231,-8.2279,-8.2332,-8.2334,-8.2558,-8.2512,-8.2541,-8.2598,-8.2821,-8.2829,-8.2836,-8.2848,-8.2861,-8.2871,0,0,0,0,0,0,-8.1781,-8.1892,-8.1899,-8.2026,-8.2102,-8.2197,-8.2258,-8.2269,-8.2351,-8.2346,-8.2392,-8.2414,-8.253,-8.2577,-8.2524,-8.2722,-8.2687,-8.27,-8.2686,-8.2698,-8.2708,-8.2692,-8.251,0,0,0,0,0,-8.1795,-8.1882,-8.1974,-8.2077,-8.2115,-8.218,-8.2233,-8.2258,-8.2337,-8.2368,-8.243,-8.2505,-8.2593,-8.2649,-8.2734,-8.2862,-8.2882,-8.2915,-8.2924,-8.2932,-8.2942,-8.3013,-8.3028,-8.2866,-8.2866,-8.2866,0,0,-8.1823,-8.1895,-8.1946,-8.2078,-8.2139,-8.2227,-8.2206,-8.23,-8.2365,-8.2382,-8.2497,-8.2546,-8.2633,-8.2757,-8.2814,-8.2799,-8.2992,-8.2942,-8.2947,-8.2953,-8.3022,-8.3037,-8.3051,-8.2871,-8.287,-8.2869,0,0,-8.192,-8.1984,-8.2077,-8.214,-8.2234,-8.2278,-8.23,-8.2396,-8.243,-8.2547,-8.2562,-8.2641,-8.2791,-8.2852,-8.2903,-8.3029,-8.3034,-8.3056,-8.3103,-8.3172,-8.3184,-8.3196,-8.3239,-8.3254,-8.3067,-8.3067,-8.3067,0,-8.1942,-8.2076,-8.2123,-8.2217,-8.2274,-8.2297,-8.2391,-8.245,-8.2566,-8.2605,-8.2587,-8.2777,-8.2838,-8.2976,-8.3007,-8.3049,-8.3075,-8.3042,-8.3179,-8.3191,-8.3203,-8.3244,-8.326,-8.3069,-8.3069,-8.3068,-8.3068,0,-8.2099,-8.2192,-8.2256,-8.237,-8.2435,-8.2529,-8.2589,-8.265,-8.2671,-8.2717,-8.2837,-8.2912,-8.3013,-8.3049,-8.3069,-8.3191,-8.3178,-8.317,-8.3135,-8.3219,-8.3258,-8.3275,-8.3071,-8.3071,-8.307,-8.307,0,0,-8.2191,-8.2334,-8.2356,-8.2408,-8.2516,-8.2588,-8.2685,-8.2786,-8.2836,-8.2917,-8.2997,-8.3126,-8.312,-8.3178,-8.3207,-8.3268,-8.3362,-8.3252,-8.3255,-8.3268,-8.3499,-8.3502,-8.3519,-8.3368,-8.3371,-8.3374,-8.3491,0,-8.2297,-8.2468,-8.2515,-8.2659,-8.2745,-8.2772,-8.2855,-8.293,-8.2977,-8.3057,-8.3109,-8.3198,-8.3184,-8.322,-8.3282,-8.3337,-8.3408,-8.333,-8.3441,-8.3444,-8.3413,-8.354,-8.3543,-8.3649,-8.3507,-8.3509,-8.3511,0,-8.2442,-8.2528,-8.2682,-8.2781,-8.2819,-8.2893,-8.299,-8.3067,-8.3154,-8.3184,-8.3251,-8.3276,-8.3376,-8.3341,-8.3479,-8.3425,-8.3475,-8.3509,-8.3514,-8.3522,-8.3479,-8.3548,-8.3684,-8.3699,-8.3537,-8.3535,-8.3533,0,-8.249,-8.2645,-8.2757,-8.2802,-8.2921,-8.2973,-8.3024,-8.3109,-8.3167,-8.3253,-8.3291,-8.3387,-8.3439,-8.3513,-8.3563,-8.3532,-8.3697,-8.3665,-8.3723,-8.3722,-8.3752,-8.3748,-8.3893,-8.379,-8.379,-8.379,-8.379,0,-8.2601,-8.2693,-8.2781,-8.2849,-8.2954,-8.3009,-8.311,-8.3163,-8.3239,-8.3317,-8.3348,-8.3421,-8.3484,-8.3566,-8.3607,-8.3715,-8.3739,-8.3765,-8.3773,-8.376,-8.3756,-8.3789,-8.3781,-8.3794,-8.3793,-8.3792,-8.3792,0,-8.267,-8.2733,-8.2856,-8.2961,-8.299,-8.3062,-8.3151,-8.3218,-8.3269,-8.3368,-8.3395,-8.3473,-8.3571,-8.3631,-8.3754,-8.3782,-8.3901,-8.3908,-8.3871,-8.3874,-8.3927,-8.392,-8.4095,-8.4121,-8.4004,-8.4005,-8.4006,0,-8.2734,-8.2806,-8.292,-8.2976,-8.3029,-8.3118,-8.3179,-8.3237,-8.3299,-8.3406,-8.346,-8.3562,-8.3645,-8.3801,-8.3868,-8.3964,-8.3972,-8.4027,-8.3986,-8.397,-8.3969,-8.3963,-8.397,-8.4032,-8.4033,-8.4034,-8.4034,0,-8.2841,-8.287,-8.2957,-8.3056,-8.3129,-8.3209,-8.3289,-8.3333,-8.3405,-8.3474,-8.3576,-8.3641,-8.377,-8.3869,-8.3972,-8.4024,-8.4041,-8.4048,-8.4066,-8.405,-8.4025,-8.4037,-8.3886,-8.4042,-8.4041,-8.4041,-8.404,-8.404,-8.2908,-8.2973,-8.3064,-8.3161,-8.3228,-8.3303,-8.3372,-8.3433,-8.352,-8.3629,-8.3659,-8.3766,-8.3854,-8.3993,-8.4049,-8.4134,-8.4124,-8.4151,-8.4157,-8.4161,-8.4161,-8.4015,-8.4153,-8.4153,-8.4153,-8.4152,-8.4152,0,-8.3014,-8.3075,-8.3164,-8.3276,-8.3353,-8.3366,-8.3457,-8.3519,-8.3613,-8.3695,-8.3777,-8.3895,-8.3994,-8.4071,-8.4171,-8.4224,-8.4234,-8.4248,-8.4242,-8.4254,-8.4165,-8.4138,-8.4238,-8.4238,-8.4238,-8.4238,-8.4238,-8.4238,-8.3077,-8.3189,-8.3229,-8.3375,-8.3435,-8.3541,-8.3592,-8.3661,-8.3726,-8.3858,-8.394,-8.3991,-8.4071,-8.4178,-8.4269,-8.4289,-8.4323,-8.4335,-8.4356,-8.427,-8.426,-8.4251,-8.4226,-8.4343,-8.4343,-8.4438,-8.4439,-8.444]},{"header":{"parameterUnit":"m.s-1","parameterCategory":1,"la1":30.2991,"la2":30.254,"lo1":-89.0895,"lo2":-89.0444,"dy":0.0017,"dx":0.0017,"nx":28,"ny":28,"refTime":"2024-04-28T09:00:00:Z","depth":0,"parameterNumber":3,"parameterNumberName":"V-component_of_WINDS"},"data":[0,0,0,0,0,0,0,0,0,0,0,0,0,0,0,0,0,0,0,0,0,0,0,0,0,0,0,0,0,0,0,0,0,0,0,0,0,0,0,0,0,0,0,0,0,0,0,0,0,0,0,0,0,0,0,0,0,0,5.9946,5.9946,0,5.9999,5.9999,6.0,6.0029,6.0029,6.003,6.003,6.0079,6.008,6.0082,0,0,0,0,0,0,0,0,0,0,0,0,0,5.9868,5.9869,5.9946,5.9946,5.9947,5.9999,5.9999,6.0,6.0029,6.0029,6.003,6.003,6.0079,6.008,6.0082,0,0,0,0,0,0,0,0,0,0,0,0,0,5.9909,5.9869,5.9945,5.9968,5.997,5.9999,5.9999,6.0,6.0029,6.0029,6.003,6.003,6.0078,6.008,6.0082,6.009,0,0,6.0087,6.0088,0,0,0,0,0,0,0,0,5.9907,5.9912,5.9964,5.9966,5.9969,6.0008,5.999,6.003,6.0029,6.0007,6.003,6.003,6.0055,6.0059,6.0068,6.0093,6.0095,6.0088,6.0089,6.009,6.009,0,0,0,0,0,0,0,5.9904,5.991,5.9966,5.9965,5.9968,5.9975,5.9981,5.9998,6.0029,6.0009,6.0011,6.0017,6.0056,6.0066,6.007,6.0095,6.0088,6.0089,6.009,6.0091,6.0133,6.0133,0,0,0,0,0,0,5.9898,5.9907,5.9965,5.9968,5.9938,5.9976,5.9983,5.9995,6.0029,6.0035,6.0017,6.0018,6.0063,6.0067,6.0071,6.0086,6.009,6.0091,6.0092,6.0133,6.0133,6.0133,0,0,0,0,0,0,5.9896,5.9903,5.9963,5.9938,5.9947,5.9977,5.9991,5.9996,6.0006,6.0036,6.0041,6.0022,6.0063,6.0069,6.0086,6.0088,6.0092,6.0094,6.0133,6.0133,6.0133,6.0112,0,0,0,0,0,0,5.9894,5.9902,5.9905,5.9938,5.9948,5.9977,5.9991,5.9997,6.001,6.0012,6.0041,6.0046,6.0064,6.0084,6.0088,6.009,6.0095,6.0133,6.0133,6.0133,6.0113,6.0112,6.0111,0,0,0,0,0,5.9891,5.9896,5.9905,5.9912,5.9953,5.9977,5.9983,6.0004,6.001,6.0014,6.0033,6.0045,6.0087,6.0085,6.0091,6.0093,6.0133,6.0133,6.0133,6.0114,6.0112,6.0111,0,0,0,0,0,0,5.9859,5.99,5.9911,5.9927,5.9949,5.9982,5.9987,6.0001,6.002,6.0021,6.0047,6.0053,6.0069,6.0083,6.008,6.0105,6.0111,6.0112,6.0095,6.0094,6.0092,6.0088,6.0097,0,0,0,0,0,5.9855,5.9872,5.9906,5.9917,5.9928,5.9956,5.9967,5.9983,6.0005,6.0014,6.0034,6.0055,6.0073,6.0084,6.0102,6.0116,6.0123,6.012,6.0119,6.0118,6.0118,6.0129,6.0129,6.0133,6.0133,6.0133,0,0,5.9844,5.9869,5.9878,5.9912,5.993,5.9947,5.9963,5.998,5.9993,6.0016,6.0035,6.0051,6.0075,6.0092,6.01,6.0104,6.012,6.0118,6.0117,6.0118,6.0129,6.0129,6.0129,6.0133,6.0133,6.0133,0,0,5.9835,5.9855,5.9867,5.9887,5.9916,5.9935,5.9938,5.9971,5.9983,6.0003,6.0022,6.0037,6.0067,6.0085,6.0098,6.0099,6.0112,6.0104,6.0097,6.0108,6.0107,6.0107,6.0109,6.0109,6.0105,6.0105,6.0105,0,5.9817,5.9845,5.9871,5.9889,5.9904,5.9929,5.9942,5.9959,5.9991,6.0001,6.0006,6.0047,6.0064,6.0087,6.0088,6.0097,6.0102,6.0101,6.0106,6.0106,6.0106,6.0108,6.0109,6.0104,6.0104,6.0104,6.0104,0,5.9824,5.9843,5.985,5.9884,5.99,5.9915,5.9943,5.9956,5.9971,5.999,6.0011,6.0035,6.0059,6.0066,6.0079,6.0091,6.0093,6.0101,6.0108,6.0104,6.0107,6.0108,6.0102,6.0103,6.0103,6.0103,0,0,5.9793,5.9845,5.9847,5.9865,5.99,5.9915,5.9932,5.9959,5.997,5.9992,6.0007,6.0034,6.0044,6.0058,6.0074,6.0083,6.0086,6.0091,6.0092,6.009,6.0102,6.0096,6.0096,6.0095,6.0095,6.0095,6.01,0,5.9789,5.9823,5.9849,5.9872,5.9891,5.9917,5.9932,5.9955,5.9974,5.9993,6.0013,6.0032,6.0042,6.0052,6.0062,6.0083,6.0088,6.0083,6.0109,6.0109,6.0102,6.0097,6.009,6.0094,6.0101,6.0101,6.0101,0,5.9788,5.9814,5.984,5.9877,5.9886,5.9899,5.9927,5.9945,5.9972,5.9986,6.0004,6.0022,6.0041,6.0048,6.0075,6.0071,6.0083,6.0095,6.0096,6.0099,6.0105,6.0101,6.0095,6.0096,6.0103,6.0103,6.0103,0,5.9765,5.9805,5.9827,5.9841,5.9884,5.9894,5.9912,5.994,5.9956,5.998,5.999,6.0015,6.0029,6.0048,6.0073,6.0074,6.0098,6.0105,6.011,6.0109,6.0113,6.0112,6.011,6.012,6.012,6.012,6.012,0,5.9758,5.9773,5.9818,5.9831,5.9849,5.988,5.9896,5.9917,5.9943,5.996,5.9983,5.9999,6.003,6.005,6.0069,6.0089,6.0095,6.0106,6.0111,6.0104,6.0103,6.0112,6.0113,6.012,6.012,6.012,6.012,0,5.9735,5.9765,5.9791,5.9832,5.9843,5.9854,5.9889,5.9903,5.9925,5.9947,5.9954,5.9987,6.0012,6.0039,6.0071,6.0084,6.0104,6.011,6.0095,6.0098,6.0101,6.0101,6.0105,6.0107,6.0115,6.0115,6.0115,0,5.9729,5.9742,5.9785,5.98,5.9819,5.9842,5.9859,5.989,5.9906,5.9941,5.9951,5.9978,6.0001,6.004,6.0066,6.0092,6.01,6.0099,6.0103,6.0097,6.0101,6.01,6.0102,6.0098,6.0097,6.0097,6.0097,0,5.9715,5.973,5.9755,5.9786,5.9807,5.9832,5.9858,5.9868,5.9904,5.9922,5.9949,5.9967,6.0003,6.003,6.0059,6.0077,6.0093,6.0096,6.0099,6.0092,6.0083,6.0089,6.0092,6.0095,6.0096,6.0096,6.0096,6.0096,5.97,5.9714,5.9749,5.9776,5.98,5.9825,5.9841,5.9867,5.989,5.9923,5.994,5.9967,5.9997,6.0039,6.0057,6.0079,6.0084,6.0087,6.0088,6.0088,6.0087,6.008,6.0084,6.0084,6.0084,6.0084,6.0084,0,5.9689,5.9713,5.9739,5.9777,5.9799,5.9815,5.9845,5.9862,5.9887,5.9915,5.9939,5.9971,5.9998,6.0028,6.0057,6.0068,6.0077,6.0075,6.0074,6.0079,6.008,6.0076,6.0068,6.0068,6.0068,6.0068,6.0068,6.0068,5.9686,5.9711,5.9731,5.9769,5.9793,5.9822,5.9838,5.9862,5.9884,5.992,5.9944,5.9965,5.9994,6.0026,6.0051,6.006,6.0069,6.0066,6.0076,6.0077,6.0078,6.0079,6.0075,6.0067,6.0067,6.0072,6.0072,6.0072]}]]